Seattle Boeing, WA
on Saturday, February 9, 2013

Saturday
Previous Day Next Day
Daily Summary
 ActualAverage (KSEA)Record (KSEA)
Temperature
Mean Temperature °F 43°F  
Max Temperature 46°F 49°F 62°F (1968)
Min Temperature 42°F 37°F 26°F (1989)
Degree Days
Heating Degree Days 21 22  
Month to date heating degree days 198  
Since 1 July heating degree days 2847  
Cooling Degree Days 0 0  
Month to date cooling degree days 0  
Year to date cooling degree days 0  
Moisture
Dew Point 37°F   
Average Humidity 77    
Maximum Humidity 85    
Minimum Humidity 61    
Precipitation
Precipitation 0.01 in 0.13 in 2.98 in (1951)
Month to date precipitation 1.20  
Year to date precipitation 6.77  
Snow
Snow 0.00 in in 2.00 in (1985)
Month to date snowfall  
Since 1 July snowfall  
Snow Depth in   
Wind
Wind Speed 1 mph   
Max Wind Speed 6 mph   
Max Gust Speed mph   
Visibility 9 miles   
Events Rain   

Key: T is trace of precipitation, MM is missing value
Source: NWS Daily Summary
Time(PST)TemperatureDew PointHumidity Pressure Visibility Wind DirectionWind SpeedGust SpeedPrecipitationEvents Conditions
12:53 AM 44.1°F 36.0°F 73% 30.28 in 10.0 miles Calm Calm - N/A   Overcast
1:53 AM 43.0°F 36.0°F 76% 30.29 in 10.0 miles Calm Calm - N/A   Overcast
2:53 AM 43.0°F 36.0°F 76% 30.28 in 10.0 miles Calm Calm - N/A   Overcast
3:53 AM 42.1°F 36.0°F 79% 30.27 in 10.0 miles SE 3.5 mph - N/A   Overcast
4:00 AM 42.8°F 35.6°F 76% 30.27 in 10.0 miles Calm Calm - N/A   Overcast
4:53 AM 42.1°F 36.0°F 79% 30.28 in 10.0 miles ESE 3.5 mph - N/A   Overcast
5:10 AM 42.8°F 35.6°F 76% 30.28 in 10.0 miles Calm Calm - N/A   Overcast
5:19 AM 42.8°F 35.6°F 76% 30.27 in 10.0 miles Calm Calm - N/A   Overcast
5:53 AM 42.1°F 36.0°F 79% 30.27 in 10.0 miles ESE 4.6 mph - N/A   Overcast
6:02 AM 42.8°F 35.6°F 76% 30.27 in 10.0 miles ESE 3.5 mph - N/A   Overcast
6:11 AM 42.8°F 37.4°F 81% 30.28 in 10.0 miles Calm Calm - N/A   Overcast
6:53 AM 42.1°F 37.0°F 82% 30.29 in 10.0 miles ESE 3.5 mph - N/A   Overcast
7:53 AM 42.1°F 36.0°F 79% 30.28 in 10.0 miles ESE 5.8 mph - N/A   Overcast
8:53 AM 42.1°F 37.0°F 82% 30.28 in 10.0 miles SE 4.6 mph - N/A   Overcast
9:53 AM 44.1°F 37.0°F 76% 30.29 in 10.0 miles SE 4.6 mph - N/A   Overcast
10:53 AM 46.0°F 37.0°F 71% 30.30 in 10.0 miles Calm Calm - N/A   Overcast
11:53 AM 46.0°F 34.0°F 63% 30.28 in 10.0 miles NNW 3.5 mph - N/A   Overcast
12:53 PM 46.9°F 35.1°F 63% 30.28 in 10.0 miles Calm Calm - N/A   Overcast
1:53 PM 46.9°F 34.0°F 61% 30.27 in 10.0 miles Calm Calm - N/A   Mostly Cloudy
2:37 PM 46.4°F 35.6°F 66% 30.27 in 10.0 miles West 3.5 mph - N/A   Overcast
2:53 PM 46.9°F 36.0°F 66% 30.27 in 10.0 miles Calm Calm - N/A   Overcast
3:53 PM 46.0°F 37.0°F 71% 30.29 in 8.0 miles Variable 3.5 mph - N/A   Overcast
4:53 PM 45.0°F 39.0°F 80% 30.30 in 7.0 miles Calm Calm - N/A   Overcast
5:53 PM 44.1°F 39.0°F 82% 30.31 in 4.0 miles Calm Calm - N/A   Haze
6:53 PM 44.1°F 39.9°F 85% 30.31 in 3.0 miles Calm Calm - 0.01 in Rain Light Rain
7:53 PM 44.1°F 39.9°F 85% 30.30 in 8.0 miles Calm Calm - 0.00 in   Overcast
8:53 PM 44.1°F 39.9°F 85% 30.31 in 10.0 miles Calm Calm - N/A   Overcast
9:00 PM 44.6°F 39.2°F 81% 30.31 in 10.0 miles Calm Calm - N/A   Overcast
9:09 PM 44.6°F 39.2°F 81% 30.32 in 10.0 miles Calm Calm - N/A   Overcast
9:53 PM 45.0°F 39.9°F 82% 30.32 in 10.0 miles Calm Calm - N/A   Overcast
10:53 PM 45.0°F 39.9°F 82% 30.34 in 4.0 miles Calm Calm - N/A   Haze
11:53 PM 45.0°F 39.9°F 82% 30.34 in 4.0 miles Calm Calm - N/A   Overcast
Moon Phase
Feb. 09 Feb. 10 Feb. 17 Feb. 25 Mar. 04
Sunrise:07:23 AM (PST) Moon Rise:06:37 AM (PST)2/9
Sunset:05:23 PM (PST) Moon Set:05:15 PM (PST)2/9

Copyright © 2014 The Weather Underground, Inc.